Location: St Paul
(33.4390°N, 83.7350°W)
Time: 07:10:12
(UTC-05:00)

DELTA 2 R/B (1) - Pass Details

Date: 06 October 2017
Orbit: 791 x 802 km, 39.6° (Epoch: 16 December)

Event Time Altitude Azimuth Distance (km) Brightness Sun altitude
Rises 21:29:15 0° 249° (WSW) 3,290 7.6 -29.2°
Reaches altitude 10° 21:31:44 10° 250° (WSW) 2,363 6.7 -29.7°
Enters shadow 21:36:17 60° 263° (W) 912 4.0 -30.6°
